Simultaneous Nadir Overpasses (SNOs) Predictions

Prediction of SNOs between NOAA-20 and AQUA Satellite Orbit:

Table of predicted SNOs for the next 14.0 days since TLE Epoch: 1/30/2021
Index Date (NOAA-20) Time (NOAA-20) Lat,Lon (NOAA-20) SZA (NOAA-20 ) Date (AQUA) Time (AQUA) Lat,Lon (AQUA) SZA (AQUA ) Distance(km) Time Diff (sec)
1 01/31/2021 13:39:37 -74.93, 30.92 64.03 01/31/2021 13:40:44 -74.93, 30.91 64.09 0.19 67
2 01/31/2021 14:29:52 76.28,-157.47 114.38 01/31/2021 14:29:42 76.27,-157.57 114.41 2.71 10
3 02/03/2021 05:56:26 -75.22, 147.55 65.11 02/03/2021 05:57:08 -75.23, 147.59 65.16 1.46 42
4 02/03/2021 06:46:43 76.46, -41.02 113.41 02/03/2021 06:46:08 76.46, -41.06 113.45 1.22 35
5 02/05/2021 22:13:14 -75.51, -95.80 66.22 02/05/2021 22:13:31 -75.52, -95.71 66.26 2.52 17
6 02/05/2021 23:03:32 76.69, 75.62 112.35 02/05/2021 23:02:32 76.69, 75.62 112.40 0.24 60
7 02/08/2021 13:39:38 74.80,-149.43 113.81 02/08/2021 13:40:47 74.80,-149.41 113.74 0.69 69
8 02/08/2021 14:29:53 -76.25, 22.45 67.92 02/08/2021 14:29:46 -76.24, 22.35 67.89 2.89 7
9 02/11/2021 05:56:25 75.18, -32.55 112.52 02/11/2021 05:57:09 75.19, -32.52 112.47 1.09 44



Historial Predications of SNOs between NOAA-20 and AQUA
